[[{"header":{"parameterUnit":"m.s-1","parameterCategory":2,"la1":30.2992,"la2":30.254,"lo1":-89.0895,"lo2":-89.0443,"dy":0.0025,"dx":0.0025,"nx":19,"ny":19,"refTime":"2026-04-04T21:00:00:Z","depth":"0","parameterNumber":2,"parameterNumberName":"U-component_of_CURRENTS"},"data":[0,0,0,-0.203,-0.2033,-0.2159,-0.216,-0.219,-0.219,0,0,0,0,0,0,0,0,0,0,0,-0.1961,-0.1962,-0.203,-0.2034,-0.2159,-0.216,-0.219,-0.219,0,0,0,0,0,0,0,0,0,0,0,-0.1961,-0.1962,-0.1963,-0.2034,-0.2159,-0.216,-0.219,-0.2123,0,0,0,0,0,0,0,0,0,0,-0.2016,-0.1971,-0.1962,-0.1963,-0.2035,-0.2159,-0.216,-0.2121,-0.2127,-0.2102,0,-0.2121,0,-0.2174,-0.2191,-0.2191,0,0,0,-0.2015,-0.1966,-0.2014,-0.1963,-0.2037,-0.2159,-0.2097,-0.2126,-0.2132,-0.2109,-0.2122,-0.2125,-0.2174,-0.2191,-0.2191,-0.2345,-0.2347,0,0,-0.2009,-0.1969,-0.201,-0.2018,-0.2067,-0.2094,-0.2102,-0.2131,-0.2125,-0.2123,-0.2127,-0.2175,-0.2191,-0.2191,-0.2344,-0.2346,0,0,0,-0.2001,-0.1963,-0.2013,-0.2015,-0.2058,-0.2098,-0.2107,-0.2123,-0.2144,-0.2128,-0.2175,-0.2191,-0.2191,-0.2342,-0.2345,-0.237,0,0,0,-0.1996,-0.1961,-0.201,-0.1985,-0.2059,-0.2111,-0.2098,-0.2141,-0.2148,-0.2175,-0.2191,-0.2192,-0.234,-0.2343,-0.2365,-0.2366,0,0,0,-0.1956,-0.1957,-0.1975,-0.1983,-0.2051,-0.2112,-0.2134,-0.2144,-0.2176,-0.2191,-0.2192,-0.2339,-0.2343,-0.2361,-0.2361,-0.2368,0,0,0,-0.1907,-0.1916,-0.1973,-0.1998,-0.205,-0.2148,-0.2135,-0.2185,-0.2199,-0.2191,-0.2341,-0.2344,-0.236,-0.2357,-0.2365,-0.2181,-0.218,0,0,-0.1891,-0.1913,-0.1931,-0.1986,-0.2075,-0.213,-0.224,-0.2244,-0.2256,-0.2313,-0.2318,-0.2367,-0.236,-0.2367,-0.2402,-0.2392,0,0,0,-0.1909,-0.1925,-0.1957,-0.2028,-0.2113,-0.2234,-0.2277,-0.2315,-0.2389,-0.2291,-0.2438,-0.2435,-0.2436,-0.2322,-0.2318,-0.2252,-0.2362,-0.2362,-0.2361,-0.1838,-0.1911,-0.1972,-0.2085,-0.2165,-0.2309,-0.2387,-0.2468,-0.2446,-0.2511,-0.2508,-0.2604,-0.2489,-0.2481,-0.242,-0.2575,-0.2575,-0.2575,-0.2575,-0.1844,-0.1888,-0.2014,-0.2093,-0.2245,-0.2351,-0.2523,-0.2546,-0.2634,-0.2622,-0.2621,-0.2422,-0.2476,-0.2413,-0.2578,-0.2578,-0.2577,-0.2577,-0.2577,-0.1796,-0.1835,-0.19,-0.2054,-0.2213,-0.238,-0.2512,-0.2613,-0.2656,-0.2681,-0.2528,-0.2524,-0.2416,-0.2665,-0.2665,-0.2666,-0.2666,-0.2666,-0.2666,-0.1713,-0.1796,-0.185,-0.2015,-0.2113,-0.2278,-0.2486,-0.2533,-0.2551,-0.2551,-0.2549,-0.2453,-0.2631,-0.2566,-0.2667,-0.2667,-0.2667,-0.2667,-0.2666,-0.1636,-0.1668,-0.1743,-0.1823,-0.2044,-0.212,-0.2332,-0.2364,-0.2419,-0.2372,-0.2311,-0.2476,-0.2439,-0.2442,-0.2375,-0.242,-0.242,-0.242,-0.242,-0.1556,-0.159,-0.1658,-0.1757,-0.191,-0.2049,-0.2021,-0.2073,-0.2114,-0.2094,-0.218,-0.2115,-0.2127,-0.2071,-0.2082,-0.2009,-0.196,-0.196,-0.196,-0.15,-0.1533,-0.1543,-0.1661,-0.1841,-0.1908,-0.1806,-0.1778,-0.1858,-0.1944,-0.2136,-0.2155,-0.2069,-0.2093,-0.2011,-0.2031,-0.1913,0,0]},{"header":{"parameterUnit":"m.s-1","parameterCategory":2,"la1":30.2992,"la2":30.254,"lo1":-89.0895,"lo2":-89.0443,"dy":0.0025,"dx":0.0025,"nx":19,"ny":19,"refTime":"2026-04-04T21:00:00:Z","depth":"0","parameterNumber":3,"parameterNumberName":"V-component_of_CURRENTS"},"data":[0,0,0,-0.011,-0.0109,-0.002,-0.0019,0.0157,0.0159,0,0,0,0,0,0,0,0,0,0,0,-0.0142,-0.0142,-0.011,-0.0109,-0.002,-0.0019,0.0157,0.0159,0,0,0,0,0,0,0,0,0,0,0,-0.0142,-0.0142,-0.0142,-0.0109,-0.002,-0.0019,0.0157,0.0079,0,0,0,0,0,0,0,0,0,0,-0.0013,-0.0059,-0.0142,-0.0142,-0.0108,-0.002,-0.0019,0.0075,0.0084,0.0128,0,0.0127,0,0.014,0.017,0.0171,0,0,0,-0.0088,-0.0067,-0.0046,-0.0142,-0.0108,-0.002,-0.0054,0.008,0.009,0.0141,0.0129,0.0136,0.0143,0.0171,0.0172,0.0355,0.0356,0,0,-0.0093,-0.0115,-0.0054,-0.0041,-0.0103,-0.0057,-0.0052,0.0085,0.0092,0.013,0.014,0.0146,0.0173,0.0174,0.0354,0.0355,0,0,0,-0.0121,-0.0118,-0.0101,-0.0048,-0.004,-0.0055,-0.0049,0.0086,0.009,0.0141,0.0148,0.0174,0.0176,0.0353,0.0355,0.0271,0,0,0,-0.0123,-0.0136,-0.0104,-0.0114,-0.0044,0.0015,-0.0051,0.008,0.0096,0.0147,0.0174,0.0177,0.0353,0.0354,0.0271,0.0225,0,0,0,-0.0143,-0.0138,-0.0134,-0.0116,-0.0087,0.0013,0.0026,0.0084,0.01,0.0171,0.0178,0.0352,0.0354,0.0272,0.0227,0.0283,0,0,0,-0.0157,-0.0183,-0.0135,-0.0153,-0.0088,-0.0045,0.0025,0.0071,0.0124,0.0174,0.0353,0.0354,0.0272,0.0228,0.0283,0.0225,0.0219,0,0,-0.0204,-0.0189,-0.0199,-0.0155,-0.0153,-0.0054,-0.0005,0.0089,0.0176,0.0314,0.0318,0.0271,0.0227,0.0283,0.0325,0.0316,0,0,0,-0.0223,-0.0234,-0.0223,-0.0208,-0.0152,-0.0077,0.0024,0.0106,0.0236,0.0213,0.0331,0.0307,0.0344,0.0311,0.0305,0.0495,0.0363,0.0362,0.0362,-0.0313,-0.0285,-0.0305,-0.0259,-0.0215,-0.0081,0.0008,0.0152,0.0218,0.0283,0.0282,0.0325,0.0289,0.0284,0.0481,0.034,0.034,0.0339,0.0339,-0.0398,-0.0414,-0.0366,-0.0375,-0.0278,-0.0213,-0.0002,0.0084,0.0259,0.0291,0.0332,0.0278,0.0272,0.0486,0.0335,0.0336,0.0336,0.0337,0.0337,-0.0457,-0.0466,-0.0463,-0.0469,-0.0421,-0.0295,-0.0184,-0.0006,0.0177,0.0224,0.0257,0.0258,0.0411,0.0258,0.0258,0.0258,0.0258,0.0258,0.0258,-0.0523,-0.0523,-0.0568,-0.0562,-0.0568,-0.0499,-0.0278,-0.015,0.0053,0.0178,0.0179,0.0461,0.0302,0.0265,0.0259,0.0259,0.0259,0.0259,0.0259,-0.0598,-0.0596,-0.0676,-0.0703,-0.0711,-0.0685,-0.0486,-0.0246,-0.0068,0.0018,0.0396,0.0194,0.0229,0.0234,0.0199,0.0176,0.0176,0.0176,0.0176,-0.0649,-0.0655,-0.0768,-0.0832,-0.0848,-0.0765,-0.0643,-0.0361,0.0106,0.0361,0.0473,0.0486,0.0481,0.0535,0.0533,0.0507,0.0564,0.0565,0.0566,-0.0702,-0.0736,-0.0826,-0.0888,-0.0918,-0.0848,-0.0741,-0.043,0.026,0.0607,0.0758,0.0741,0.0788,0.0764,0.0867,0.0849,0.0813,0,0]}],[{"header":{"parameterUnit":"m.s-1","parameterCategory":2,"la1":30.2992,"la2":30.254,"lo1":-89.0895,"lo2":-89.0443,"dy":0.0025,"dx":0.0025,"nx":19,"ny":19,"refTime":"2026-04-04T21:00:00:Z","depth":"2","parameterNumber":2,"parameterNumberName":"U-component_of_CURRENTS"},"data":[0,0,0,-0.1794,-0.1797,-0.1931,-0.1932,-0.1981,-0.1981,0,0,0,0,0,0,0,0,0,0,0,-0.1735,-0.1736,-0.1794,-0.1797,-0.1931,-0.1932,-0.1981,-0.1981,0,0,0,0,0,0,0,0,0,0,0,-0.1735,-0.1736,-0.1737,-0.1798,-0.1931,-0.1932,-0.1981,-0.191,0,0,0,0,0,0,0,0,0,0,-0.1795,-0.1757,-0.1736,-0.1737,-0.1799,-0.1931,-0.1932,-0.1908,-0.1914,-0.1886,0,-0.1905,0,-0.1948,-0.1982,-0.1982,0,0,0,-0.1796,-0.1751,-0.1792,-0.1737,-0.18,-0.1931,-0.187,-0.1912,-0.1919,-0.1894,-0.1906,-0.1909,-0.1949,-0.1982,-0.1982,-0.2068,-0.2069,0,0,-0.1788,-0.1755,-0.1787,-0.1796,-0.183,-0.1866,-0.1875,-0.1918,-0.1917,-0.1906,-0.1911,-0.1949,-0.1982,-0.1982,-0.2067,-0.2068,0,0,0,-0.1768,-0.1749,-0.1791,-0.1792,-0.1829,-0.187,-0.188,-0.1915,-0.1931,-0.1912,-0.195,-0.1982,-0.1982,-0.2066,-0.2068,-0.2102,0,0,0,-0.1764,-0.1738,-0.1787,-0.1768,-0.1829,-0.1891,-0.1876,-0.1928,-0.1935,-0.195,-0.1982,-0.1982,-0.2065,-0.2067,-0.2099,-0.211,0,0,0,-0.173,-0.1735,-0.175,-0.1766,-0.1828,-0.1892,-0.1911,-0.1931,-0.1957,-0.1982,-0.1982,-0.2065,-0.2067,-0.2096,-0.2106,-0.21,0,0,0,-0.1692,-0.1705,-0.1749,-0.1775,-0.1827,-0.1903,-0.1911,-0.1955,-0.1976,-0.1982,-0.2066,-0.2068,-0.2095,-0.2104,-0.2098,-0.1931,-0.1926,0,0,-0.1686,-0.1703,-0.172,-0.1763,-0.1833,-0.1885,-0.1968,-0.1991,-0.2002,-0.2039,-0.2043,-0.21,-0.2106,-0.21,-0.2051,-0.2042,0,0,0,-0.1704,-0.1717,-0.1742,-0.1798,-0.1863,-0.1958,-0.1999,-0.2033,-0.2097,-0.2028,-0.2133,-0.2136,-0.213,-0.2027,-0.2021,-0.2077,-0.2077,-0.2077,-0.2077,-0.1648,-0.1705,-0.1751,-0.1835,-0.1894,-0.2006,-0.2073,-0.2137,-0.2123,-0.2173,-0.2188,-0.2242,-0.2135,-0.2128,-0.2218,-0.2218,-0.2218,-0.2219,-0.2219,-0.165,-0.168,-0.1773,-0.1834,-0.1946,-0.2024,-0.2164,-0.2193,-0.2269,-0.2265,-0.2257,-0.2099,-0.2122,-0.2222,-0.2221,-0.2221,-0.2221,-0.222,-0.222,-0.1608,-0.1635,-0.1687,-0.1796,-0.1913,-0.2042,-0.2146,-0.2242,-0.2293,-0.2318,-0.2168,-0.2164,-0.2226,-0.2297,-0.2297,-0.2297,-0.2297,-0.2297,-0.2298,-0.1537,-0.16,-0.1633,-0.1756,-0.1819,-0.1943,-0.2127,-0.2173,-0.2191,-0.2195,-0.2193,-0.2268,-0.2265,-0.2232,-0.2298,-0.2298,-0.2298,-0.2298,-0.2298,-0.1469,-0.1496,-0.1539,-0.1587,-0.1727,-0.1763,-0.1955,-0.1994,-0.2055,-0.2012,-0.2113,-0.2117,-0.208,-0.2082,-0.2045,-0.206,-0.206,-0.206,-0.206,-0.1398,-0.1426,-0.1449,-0.1495,-0.1576,-0.1677,-0.1642,-0.1692,-0.1797,-0.1812,-0.1823,-0.1767,-0.1781,-0.1726,-0.1737,-0.1692,-0.1615,-0.1614,-0.1613,-0.1341,-0.1363,-0.1343,-0.1408,-0.1494,-0.153,-0.143,-0.1372,-0.1441,-0.16,-0.1789,-0.2022,-0.1967,-0.1979,-0.1915,-0.1924,-0.1861,0,0]},{"header":{"parameterUnit":"m.s-1","parameterCategory":2,"la1":30.2992,"la2":30.254,"lo1":-89.0895,"lo2":-89.0443,"dy":0.0025,"dx":0.0025,"nx":19,"ny":19,"refTime":"2026-04-04T21:00:00:Z","depth":"2","parameterNumber":3,"parameterNumberName":"V-component_of_CURRENTS"},"data":[0,0,0,-0.0153,-0.0152,-0.0064,-0.0063,0.0092,0.0093,0,0,0,0,0,0,0,0,0,0,0,-0.0183,-0.0183,-0.0153,-0.0152,-0.0064,-0.0063,0.0091,0.0093,0,0,0,0,0,0,0,0,0,0,0,-0.0184,-0.0183,-0.0183,-0.0152,-0.0064,-0.0063,0.0091,0.0019,0,0,0,0,0,0,0,0,0,0,-0.0069,-0.0112,-0.0183,-0.0183,-0.0151,-0.0064,-0.0063,0.0015,0.0024,0.0058,0,0.0057,0,0.0071,0.0102,0.0103,0,0,0,-0.0132,-0.0119,-0.0098,-0.0183,-0.0151,-0.0065,-0.0098,0.002,0.0029,0.0069,0.006,0.0065,0.0074,0.0103,0.0104,0.0206,0.0206,0,0,-0.0136,-0.0158,-0.0105,-0.0093,-0.0145,-0.0101,-0.0096,0.0025,0.003,0.006,0.0069,0.0076,0.0104,0.0105,0.0206,0.0206,0,0,0,-0.0164,-0.0162,-0.0144,-0.0099,-0.0091,-0.0099,-0.0093,0.0025,0.003,0.0071,0.0078,0.0105,0.0107,0.0206,0.0206,0.0118,0,0,0,-0.0166,-0.0179,-0.0147,-0.0157,-0.0094,-0.0038,-0.0096,0.0022,0.0035,0.0077,0.0105,0.0108,0.0206,0.0206,0.012,0.0077,0,0,0,-0.0184,-0.0181,-0.0177,-0.0159,-0.013,-0.004,-0.0027,0.0025,0.004,0.0103,0.0109,0.0206,0.0206,0.0122,0.0081,0.0107,0,0,0,-0.02,-0.0221,-0.0178,-0.0192,-0.0131,-0.01,-0.0028,0.0012,0.0058,0.0106,0.0206,0.0206,0.0122,0.0084,0.0109,0.01,0.0092,0,0,-0.024,-0.0226,-0.0235,-0.0195,-0.0203,-0.0109,-0.0092,-0.0001,0.0077,0.0173,0.0176,0.0119,0.0082,0.0108,0.0108,0.01,0,0,0,-0.0256,-0.027,-0.026,-0.0253,-0.0207,-0.0166,-0.0073,-0.0012,0.0081,0.0102,0.0147,0.0127,0.0146,0.0145,0.0138,0.0207,0.0207,0.0207,0.0207,-0.0347,-0.0324,-0.035,-0.032,-0.0291,-0.0197,-0.0139,-0.0034,0.0039,0.0073,0.0075,0.006,0.0057,0.0053,0.0102,0.0102,0.0102,0.0101,0.0101,-0.0432,-0.0453,-0.0425,-0.0441,-0.0384,-0.035,-0.0205,-0.0132,-0.0011,0.0035,0.0058,0.0076,0.004,0.0095,0.0096,0.0097,0.0097,0.0098,0.0098,-0.0493,-0.0506,-0.0508,-0.0536,-0.0528,-0.0444,-0.039,-0.0252,-0.0098,-0.007,-0.0009,-0.0007,0.0013,-0.0043,-0.0043,-0.0044,-0.0044,-0.0044,-0.0044,-0.0556,-0.0564,-0.0613,-0.0632,-0.0655,-0.0631,-0.0481,-0.0386,-0.0211,-0.0096,-0.0095,0.0013,0.0018,0.0008,-0.0045,-0.0045,-0.0045,-0.0045,-0.0044,-0.0631,-0.0629,-0.0715,-0.0753,-0.0803,-0.0808,-0.0669,-0.0464,-0.0324,-0.0238,-0.0081,-0.0079,-0.0039,-0.0032,-0.0041,-0.0103,-0.0103,-0.0103,-0.0103,-0.068,-0.0688,-0.0805,-0.0886,-0.0936,-0.089,-0.0789,-0.0544,-0.0278,-0.0134,-0.0132,-0.0123,-0.012,-0.0082,-0.0074,-0.0083,-0.0156,-0.0156,-0.0156,-0.0735,-0.0768,-0.0863,-0.0938,-0.1002,-0.0965,-0.0856,-0.0563,-0.0218,-0.0158,-0.0139,-0.0108,-0.009,-0.0087,-0.0021,-0.0012,-0.0022,0,0]}],[{"header":{"parameterUnit":"m.s-1","parameterCategory":2,"la1":30.2992,"la2":30.254,"lo1":-89.0895,"lo2":-89.0443,"dy":0.0025,"dx":0.0025,"nx":19,"ny":19,"refTime":"2026-04-04T21:00:00:Z","depth":"4","parameterNumber":2,"parameterNumberName":"U-component_of_CURRENTS"},"data":[0,0,0,-0.1271,-0.1273,-0.1292,-0.1292,-0.1333,-0.1334,0,0,0,0,0,0,0,0,0,0,0,-0.1277,-0.1278,-0.1271,-0.1273,-0.1292,-0.1292,-0.1333,-0.1334,0,0,0,0,0,0,0,0,0,0,0,-0.1277,-0.1278,-0.1279,-0.1273,-0.1292,-0.1292,-0.1333,-0.1309,0,0,0,0,0,0,0,0,0,0,-0.1286,-0.1275,-0.1277,-0.1279,-0.1273,-0.1292,-0.1292,-0.1308,-0.1311,-0.1336,0,-0.1366,0,-0.1357,-0.1339,-0.1339,0,0,0,-0.1251,-0.1272,-0.1303,-0.1279,-0.1274,-0.1292,-0.1277,-0.1309,-0.1313,-0.134,-0.1367,-0.1368,-0.1358,-0.134,-0.134,-0.1448,-0.1449,0,0,-0.125,-0.125,-0.1301,-0.1306,-0.1315,-0.1277,-0.1278,-0.1311,-0.1316,-0.1367,-0.1368,-0.1359,-0.134,-0.1341,-0.1448,-0.1448,0,0,0,-0.1262,-0.1249,-0.1277,-0.1305,-0.1311,-0.1278,-0.1279,-0.1314,-0.1332,-0.1369,-0.1359,-0.134,-0.1341,-0.1447,-0.1448,-0.1476,0,0,0,-0.126,-0.1257,-0.1277,-0.1272,-0.1311,-0.1305,-0.1282,-0.1329,-0.1332,-0.1359,-0.1341,-0.1342,-0.1446,-0.1448,-0.1474,-0.1462,0,0,0,-0.1269,-0.1257,-0.1276,-0.1273,-0.1292,-0.1304,-0.1321,-0.1329,-0.1328,-0.1339,-0.1342,-0.1446,-0.1447,-0.1472,-0.1459,-0.1435,0,0,0,-0.1242,-0.1269,-0.1277,-0.131,-0.1293,-0.135,-0.132,-0.1362,-0.1381,-0.1341,-0.1446,-0.1448,-0.1472,-0.1458,-0.1434,-0.1268,0,0,0,-0.1256,-0.1271,-0.1292,-0.1299,-0.1351,-0.1343,-0.1388,-0.1405,-0.1407,-0.1432,-0.1434,-0.1475,-0.1459,-0.1434,-0.1356,0,0,0,0,-0.1282,-0.1297,-0.1319,-0.135,-0.1397,-0.1412,-0.1438,-0.1447,-0.1472,-0.1428,-0.1497,-0.1486,-0.1469,-0.1372,-0.1455,-0.1455,-0.1455,-0.1454,-0.1454,-0.125,-0.129,-0.1326,-0.1381,-0.1423,-0.1473,-0.1486,-0.1502,-0.1525,-0.1547,-0.1526,-0.1549,-0.1452,-0.1559,-0.1559,-0.156,-0.156,-0.156,-0.156,-0.1248,-0.1262,-0.132,-0.1371,-0.1424,-0.1472,-0.1522,-0.154,-0.1559,-0.1573,-0.1555,-0.1432,-0.1563,-0.1563,-0.1562,-0.1562,-0.1561,-0.1561,-0.1561,-0.121,-0.1222,-0.1272,-0.1333,-0.1386,-0.1455,-0.1454,-0.1517,-0.156,-0.1566,-0.1443,-0.155,-0.1524,-0.1563,-0.1563,-0.1563,-0.1563,-0.1563,-0.1563,-0.1142,-0.1192,-0.1214,-0.1286,-0.1308,-0.1341,-0.1419,-0.1424,-0.1494,-0.1439,-0.157,-0.1548,-0.1548,-0.1524,-0.1561,-0.1561,-0.1562,-0.1562,-0.1562,-0.1079,-0.111,-0.1123,-0.1144,-0.1172,-0.1175,-0.1277,-0.1287,-0.1279,-0.1262,-0.1355,-0.1366,-0.1324,-0.1329,-0.1295,-0.1266,-0.1263,-0.1261,0,-0.1015,-0.1038,-0.1026,-0.101,-0.0982,-0.1054,-0.1012,-0.1059,-0.1141,-0.1112,-0.1267,-0.137,-0.1378,-0.133,-0.1331,-0.129,0,0,0,-0.0956,-0.0962,-0.0916,-0.0922,-0.0882,-0.0896,-0.0984,-0.0971,-0.1142,-0.1111,-0.121,-0.1223,-0.1417,-0.1555,-0.1516,-0.1516,-0.1474,0,0]},{"header":{"parameterUnit":"m.s-1","parameterCategory":2,"la1":30.2992,"la2":30.254,"lo1":-89.0895,"lo2":-89.0443,"dy":0.0025,"dx":0.0025,"nx":19,"ny":19,"refTime":"2026-04-04T21:00:00:Z","depth":"4","parameterNumber":3,"parameterNumberName":"V-component_of_CURRENTS"},"data":[0,0,0,-0.0112,-0.0111,-0.0037,-0.0037,0.0045,0.0046,0,0,0,0,0,0,0,0,0,0,0,-0.0141,-0.0141,-0.0112,-0.0111,-0.0038,-0.0037,0.0045,0.0046,0,0,0,0,0,0,0,0,0,0,0,-0.0141,-0.0141,-0.0141,-0.0111,-0.0038,-0.0037,0.0045,-0.0004,0,0,0,0,0,0,0,0,0,0,-0.0073,-0.0102,-0.0141,-0.0141,-0.0111,-0.0038,-0.0037,-0.0006,-0.0001,0.0004,0,0.0004,0,0.0022,0.005,0.005,0,0,0,-0.0097,-0.0107,-0.009,-0.0141,-0.011,-0.0038,-0.0067,-0.0003,0.0002,0.0011,0.0006,0.0009,0.0023,0.005,0.005,0.0026,0.0025,0,0,-0.0101,-0.0121,-0.0094,-0.0087,-0.0106,-0.0069,-0.0065,0.0001,0.0001,0.0006,0.0011,0.0025,0.0051,0.0051,0.0027,0.0026,0,0,0,-0.0122,-0.0124,-0.0108,-0.009,-0.0079,-0.0068,-0.0062,-0.0001,0.0003,0.0012,0.0026,0.0051,0.0052,0.0028,0.0026,-0.0058,0,0,0,-0.0124,-0.0137,-0.011,-0.012,-0.008,-0.0037,-0.0066,-0.0001,0.0007,0.0025,0.0051,0.0052,0.0028,0.0027,-0.0054,-0.0109,0,0,0,-0.0142,-0.0139,-0.0135,-0.0122,-0.0096,-0.0038,-0.0029,0.0001,0.0014,0.005,0.0052,0.0029,0.0027,-0.005,-0.0103,-0.0117,0,0,0,-0.0156,-0.017,-0.0136,-0.0146,-0.0097,-0.0084,-0.0029,-0.0006,0.0019,0.0051,0.0028,0.0027,-0.0049,-0.0099,-0.0113,-0.0063,0,0,0,-0.0184,-0.0174,-0.018,-0.0148,-0.0167,-0.0092,-0.0114,-0.0054,-0.0007,0.0011,0.0011,-0.0055,-0.0102,-0.0116,-0.0163,0,0,0,0,-0.0195,-0.0208,-0.0204,-0.0206,-0.0179,-0.0183,-0.0116,-0.0099,-0.008,-0.0002,-0.0066,-0.0094,-0.0099,-0.006,0.0018,0.0019,0.0019,0.0019,0.0019,-0.027,-0.0258,-0.0289,-0.028,-0.0277,-0.0243,-0.0241,-0.021,-0.0142,-0.0158,-0.0169,-0.0252,-0.0216,-0.0166,-0.0167,-0.0167,-0.0168,-0.0168,-0.0168,-0.0341,-0.0363,-0.0367,-0.0391,-0.0393,-0.0404,-0.0375,-0.0336,-0.0327,-0.027,-0.0269,-0.0162,-0.0177,-0.0175,-0.0174,-0.0173,-0.0172,-0.0171,-0.0171,-0.0392,-0.0405,-0.042,-0.0475,-0.0521,-0.0505,-0.0539,-0.0493,-0.0419,-0.0428,-0.0337,-0.0307,-0.0289,-0.0402,-0.0403,-0.0403,-0.0403,-0.0404,-0.0404,-0.0435,-0.0454,-0.0509,-0.056,-0.0603,-0.064,-0.0629,-0.0598,-0.052,-0.0446,-0.0441,-0.0331,-0.0323,-0.0302,-0.0409,-0.0408,-0.0407,-0.0407,-0.0407,-0.0486,-0.0494,-0.0577,-0.0628,-0.072,-0.0736,-0.0734,-0.0627,-0.0596,-0.0515,-0.0437,-0.0434,-0.0394,-0.0385,-0.0364,-0.0493,-0.0493,-0.0493,0,-0.052,-0.0531,-0.0638,-0.0724,-0.0789,-0.0793,-0.0736,-0.0674,-0.0562,-0.0554,-0.0592,-0.051,-0.0504,-0.0463,-0.0454,-0.0433,0,0,0,-0.0561,-0.0587,-0.0667,-0.0745,-0.0815,-0.0745,-0.0714,-0.0662,-0.0589,-0.0506,-0.0487,-0.0488,-0.0452,-0.0424,-0.0355,-0.0346,-0.0308,0,0]}]]